Theta_e
288 287 287 287 287 287 286 286 287 287 287 286 287 287 286 285 286 285 285 285 285 285 285 284 284 285 285 285 284 284 284 284 284 284 284 284 285 290 298 302 306 308 312 314 316 317 317 319 319 320 320 319 318 318 318 318 319 320 321 321 321 321 320 319 319 319 320 320 321 321 322 322 322 322 324 324 324 325 325 326 326 327 328 328 329
288 286 286 286 286 286 286 286 286 286 286 286 286 286 286 285 285 285 285 284 285 287 284 284 284 284 284 284 284 284 284 284 284 284 284 284 285 287 294 298 302 306 309 311 313 314 315 316 318 318 319 317 317 317 317 317 318 319 319 320 320 319 318 318 318 319 319 319 319 319 319 320 320 320 321 322 322 323 323 324 324 325 326 327 327
287 287 286 286 286 286 286 286 285 286 286 286 286 286 285 285 285 284 284 284 284 285 284 283 283 283 284 283 284 284 284 284 284 284 284 284 284 285 288 294 298 302 306 308 309 310 311 313 316 316 315 315 316 317 316 316 317 318 318 318 318 318 318 317 317 318 318 317 317 317 318 318 319 319 320 321 321 321 321 321 322 323 324 325 325
287 287 286 286 285 285 285 285 285 285 286 285 286 286 285 285 285 284 284 284 284 284 284 282 282 283 283 283 283 284 283 284 284 284 284 284 284 284 285 289 293 299 301 304 307 308 310 311 311 311 311 312 314 315 316 315 316 316 316 316 316 317 317 317 317 317 317 316 316 316 317 317 318 318 319 319 319 320 320 320 321 322 323 324 324
287 288 289 285 285 284 284 286 285 286 286 286 286 285 285 285 285 284 283 283 283 283 284 282 282 282 282 283 283 283 283 283 284 284 283 284 284 284 284 287 286 293 296 299 303 306 308 308 307 307 308 310 312 313 314 314 315 314 314 314 315 316 317 316 316 316 316 315 315 316 316 317 317 317 318 318 318 319 319 319 320 321 322 323 324
287 287 287 285 285 284 284 284 284 285 286 286 285 284 284 284 284 284 287 283 282 282 282 282 282 282 282 282 282 282 282 283 283 283 283 283 283 283 284 284 284 288 289 294 297 302 305 305 305 305 306 307 309 311 312 313 313 313 314 314 315 315 315 315 315 315 315 314 315 315 315 316 316 317 317 317 318 318 319 319 320 320 321 322 322
287 287 286 285 284 283 284 284 284 285 285 284 284 284 284 284 283 282 282 282 282 284 282 282 282 282 282 283 282 283 282 282 282 282 283 283 283 283 284 283 285 287 288 285 290 296 301 302 302 303 305 305 307 308 311 311 311 312 313 314 314 315 314 314 314 314 314 314 314 314 314 315 316 316 317 317 317 318 318 318 319 319 320 320 321
287 287 286 285 285 284 283 284 284 285 284 284 284 284 283 283 283 282 282 281 282 281 281 281 282 282 282 282 282 284 281 281 282 283 283 282 283 283 283 283 285 286 289 284 284 289 297 298 299 300 301 303 304 306 308 309 309 311 312 313 314 314 313 313 313 313 313 312 313 313 314 314 315 315 316 316 317 317 317 318 318 318 319 319 320
287 287 287 285 285 284 283 284 284 284 283 283 283 284 283 283 282 283 281 281 281 281 281 281 282 281 281 281 281 283 281 281 283 283 284 282 282 283 282 282 286 288 282 282 283 284 290 295 296 296 296 299 301 303 305 306 307 309 311 312 312 313 311 311 311 311 311 312 312 313 313 314 314 315 316 315 315 315 316 316 317 317 318 318 319
287 287 286 286 285 283 283 283 284 283 283 283 283 283 282 282 281 281 281 281 280 280 281 281 282 282 281 281 281 281 281 281 284 287 281 282 283 283 281 281 282 282 282 282 282 283 283 287 292 293 293 295 298 300 302 302 303 306 310 311 311 311 310 309 310 310 311 311 312 312 313 313 313 314 314 314 314 314 315 315 315 316 316 317 318
287 287 286 286 284 283 283 283 284 283 283 283 282 283 282 280 282 281 281 280 280 280 280 282 281 281 281 280 280 280 281 284 282 281 281 281 285 285 282 282 281 281 282 282 282 282 283 283 283 283 284 292 295 297 299 300 299 302 307 309 309 309 309 309 310 310 310 311 311 312 312 312 312 312 313 313 313 313 314 314 315 315 315 316 316
287 286 286 286 284 283 283 283 283 283 283 282 282 282 281 281 281 282 282 281 281 280 280 281 279 279 282 280 280 280 283 282 281 280 281 280 280 281 282 282 281 280 281 282 282 282 282 282 285 282 284 287 292 294 295 295 294 299 303 306 307 308 309 309 309 310 310 310 310 311 310 310 310 310 311 311 311 312 313 314 314 315 315 315 315
287 286 286 286 284 283 283 283 283 283 283 283 283 282 281 281 283 282 280 279 280 279 280 279 279 279 278 279 280 281 285 282 280 279 280 280 280 280 281 281 280 281 281 281 281 281 282 282 282 282 282 282 284 290 291 292 291 296 301 303 305 307 308 309 308 309 308 309 309 309 309 309 309 310 310 310 311 312 312 312 313 313 314 314 315
287 286 286 285 284 283 283 283 283 283 283 282 281 283 282 282 282 279 279 278 279 279 279 278 279 278 279 280 278 278 283 280 281 280 280 280 280 280 281 280 280 280 281 281 281 281 281 282 281 282 282 282 283 283 284 285 287 294 297 300 303 306 307 308 308 308 307 307 307 307 308 308 308 309 309 310 310 310 311 312 312 313 313 314 314
287 287 286 285 284 284 283 283 283 283 282 282 282 281 281 282 281 281 279 279 280 281 279 277 278 278 278 278 277 279 282 278 278 279 279 280 280 280 281 280 280 280 281 280 280 280 281 281 281 281 281 281 282 282 283 285 287 290 292 293 297 302 305 307 307 308 305 306 306 306 306 306 306 307 308 308 309 310 310 311 311 311 312 313 313
287 286 286 285 284 284 283 283 283 283 283 282 281 281 281 281 280 281 281 279 278 279 281 279 277 279 279 278 276 277 276 277 276 278 278 279 279 279 280 280 279 280 280 279 280 280 280 281 280 280 280 280 281 282 283 283 287 288 288 289 293 299 301 305 306 305 305 306 305 304 305 305 306 306 307 307 308 309 309 310 310 310 311 311 312
287 286 286 285 284 284 283 283 283 282 282 282 282 281 281 282 281 281 280 281 278 277 280 279 278 280 279 276 276 278 277 276 276 276 276 278 279 278 282 280 279 281 278 279 279 279 280 280 280 280 280 280 280 281 281 281 282 284 284 288 293 296 297 301 302 302 304 304 304 303 303 304 304 305 306 306 307 308 308 309 309 309 310 310 311
286 286 286 286 284 284 283 283 282 282 282 282 282 280 280 281 281 281 279 279 280 278 278 280 279 280 278 276 278 278 276 275 276 278 277 278 277 278 279 278 278 279 278 278 278 278 281 280 279 280 279 280 280 280 280 280 283 281 282 285 294 297 297 296 299 301 301 302 302 302 303 303 303 303 305 305 306 306 307 308 308 308 309 309 310
286 286 286 285 284 284 283 283 283 282 283 281 281 281 281 281 281 280 279 281 280 278 279 278 277 278 278 278 279 278 277 276 275 276 277 276 276 277 278 277 277 278 278 278 278 278 278 280 279 279 279 279 279 280 279 280 284 285 287 289 293 296 295 294 295 297 298 299 300 302 302 302 302 303 304 304 305 305 306 307 307 308 308 309 310
286 285 285 285 284 283 283 283 282 282 283 282 282 281 281 281 281 280 279 281 280 281 278 278 278 278 279 278 278 278 277 277 276 276 275 274 275 276 276 276 276 277 278 277 278 277 277 278 278 278 278 279 279 280 279 280 279 279 282 289 292 294 294 294 294 294 294 295 298 300 301 302 302 302 303 303 304 305 305 306 306 307 308 308 309
286 285 285 285 285 284 283 283 282 282 283 282 281 280 280 280 280 279 279 279 279 280 279 278 278 278 277 276 277 276 276 276 277 277 275 274 274 275 276 276 276 277 278 277 277 277 278 278 279 280 280 280 279 279 279 279 279 279 285 289 291 292 293 293 293 293 292 293 296 298 300 301 301 302 302 303 303 304 304 305 305 306 307 308 308
285 285 284 284 284 284 283 283 282 282 283 281 280 280 280 280 281 280 280 279 278 279 279 279 279 279 279 278 276 275 276 276 275 276 276 275 276 274 275 275 275 276 276 277 276 277 277 278 277 277 277 278 278 278 278 279 279 281 284 288 290 290 291 291 292 292 292 293 294 295 297 298 299 300 301 302 303 303 304 305 305 306 306 307 307
285 284 285 284 284 284 283 283 283 283 283 281 280 280 280 280 280 280 279 279 279 279 281 278 278 279 278 278 278 278 277 275 275 275 275 274 274 274 275 276 275 275 276 276 278 277 277 277 277 277 277 277 277 278 278 278 283 285 287 287 288 288 289 291 291 290 291 293 293 294 294 294 296 297 299 301 302 303 304 304 305 305 305 306 306
284 284 284 284 284 283 283 283 282 282 282 281 281 280 280 280 280 280 279 279 278 279 278 278 277 278 278 278 278 278 277 276 277 277 276 275 276 275 274 275 275 275 277 276 276 276 276 276 276 277 277 277 278 279 280 280 281 286 282 284 286 287 288 289 289 289 291 292 292 292 293 294 294 295 296 299 301 303 303 303 303 304 304 305 305
284 284 284 283 284 283 282 282 282 282 282 281 281 280 280 280 280 279 279 279 279 279 278 278 278 278 278 277 277 277 277 276 277 277 277 276 276 275 274 275 273 274 275 275 275 276 276 276 277 276 276 277 279 278 279 279 280 284 283 281 284 285 285 286 287 289 290 290 290 291 292 293 293 294 295 297 299 301 301 302 302 303 304 304 305
285 284 285 284 284 284 283 283 282 282 282 281 280 280 280 280 280 279 279 279 279 279 278 278 278 278 278 277 276 277 276 277 277 277 276 276 274 274 274 273 273 273 274 274 275 275 275 276 276 277 277 277 277 277 277 279 279 284 283 280 280 283 284 286 287 288 289 290 290 291 291 291 292 292 293 295 297 298 299 300 301 301 302 303 303
285 285 285 284 284 284 283 282 282 282 282 281 281 280 280 280 280 279 279 279 279 279 278 278 278 277 277 277 277 277 276 276 277 277 277 277 276 275 274 273 272 272 272 274 273 275 275 275 276 276 276 277 277 276 277 277 280 283 282 278 277 281 283 285 287 288 289 289 289 290 290 290 290 291 292 292 293 295 297 298 299 300 300 300 300
285 285 285 284 284 283 283 282 282 281 281 281 280 280 280 279 279 279 278 279 279 278 278 278 278 277 277 277 277 276 276 277 277 277 276 276 276 276 275 274 273 271 272 272 273 273 275 274 275 276 276 276 277 278 280 278 277 281 281 277 276 277 281 283 286 288 288 289 289 289 289 289 290 290 291 291 292 292 293 294 295 295 296 296 297
285 285 285 284 284 283 283 282 282 281 281 281 280 280 279 279 279 279 278 278 278 278 278 278 278 277 277 277 277 277 276 276 277 276 276 276 276 276 276 275 274 273 270 270 272 272 274 274 275 276 275 276 276 277 276 275 278 280 277 277 276 276 279 283 286 287 287 288 288 288 288 289 289 290 290 291 291 292 293 294 294 295 295 296 297
285 285 284 284 284 284 283 282 282 281 281 280 280 280 279 279 279 279 279 278 278 278 277 277 277 277 277 276 276 276 276 276 276 276 276 276 275 275 275 275 275 274 273 272 271 273 272 275 275 275 275 275 276 277 276 275 280 280 277 277 277 276 281 283 284 285 286 287 287 288 288 288 289 289 290 291 292 292 294 294 294 295 295 296 297
285 284 284 283 283 283 283 282 281 281 280 280 280 279 279 279 279 278 278 278 278 277 277 277 277 277 276 276 276 276 276 276 276 275 276 275 275 275 275 275 275 274 273 272 269 272 274 274 275 275 274 274 275 275 276 276 278 279 277 276 276 279 282 280 282 284 285 286 286 287 288 288 289 289 290 290 291 292 293 294 293 294 294 295 296
284 284 284 283 283 283 283 282 281 281 280 280 280 279 279 279 279 278 278 278 278 277 277 277 277 276 276 276 276 275 275 275 275 275 275 275 275 275 274 274 274 274 273 272 271 272 273 272 273 274 274 274 275 274 274 275 277 279 276 276 276 280 278 277 280 282 283 285 286 287 288 288 289 289 290 290 291 292 292 292 292 293 293 294 295
284 284 284 283 283 283 282 282 281 281 280 280 280 279 279 279 279 278 278 278 277 277 277 276 276 276 276 276 275 275 275 275 275 275 274 274 274 274 274 274 273 274 273 272 271 271 273 274 274 274 274 274 273 274 273 274 274 274 277 276 276 276 276 276 276 280 282 284 285 286 287 288 289 289 289 290 289 290 291 291 291 291 292 293 294
284 284 284 283 283 283 282 282 282 281 280 280 280 280 279 279 278 278 277 277 277 277 276 276 276 276 276 275 275 275 275 275 274 274 274 274 274 273 273 273 273 273 274 272 271 271 270 272 272 273 272 274 272 274 273 273 273 275 274 275 276 276 276 276 276 276 281 283 284 285 287 287 288 289 289 289 289 289 290 290 290 290 290 291 292
284 284 284 283 283 283 282 282 281 281 280 280 280 279 279 279 278 278 277 277 277 277 276 276 276 276 275 275 275 274 274 274 274 274 274 273 273 273 272 273 272 272 273 273 271 269 270 270 272 271 272 272 272 272 273 274 275 275 274 275 275 276 277 277 276 277 281 283 284 285 286 287 287 287 288 288 288 288 288 289 289 289 290 290 291
283 284 284 283 283 282 282 282 281 281 280 280 280 279 279 279 278 278 277 277 278 277 277 277 276 275 275 275 274 274 274 273 273 273 273 273 273 272 272 272 272 272 272 272 272 270 270 268 270 271 273 272 272 274 274 275 274 274 275 275 276 276 276 277 277 276 279 283 284 285 285 286 286 286 286 287 287 287 288 288 289 289 289 289 289
284 283 283 283 282 282 282 282 281 281 280 280 280 279 279 279 279 278 278 277 277 277 277 277 277 276 275 275 274 274 274 273 272 272 272 272 272 272 271 272 272 272 272 272 271 271 270 269 269 271 272 272 273 274 274 273 274 274 275 275 275 276 276 276 277 278 281 283 283 283 283 284 284 285 285 286 286 287 287 288 288 289 288 289 289
284 283 283 283 283 282 282 282 281 281 281 280 280 279 279 279 279 278 278 277 278 277 277 277 276 276 275 275 274 274 273 272 272 272 272 272 272 271 271 271 271 271 271 271 271 270 270 269 270 270 272 272 273 273 274 274 274 274 274 275 275 275 275 275 276 277 278 278 277 278 280 281 282 283 284 285 286 286 287 287 287 288 287 287 287
283 283 283 282 283 282 282 282 281 281 280 280 280 279 279 279 278 278 277 277 277 277 276 276 276 275 275 275 274 274 273 273 272 272 272 271 271 271 271 271 271 271 270 270 270 270 270 270 271 272 272 273 273 272 274 275 275 275 273 274 274 275 275 275 275 276 277 277 279 281 281 281 282 282 283 284 285 286 286 286 286 287 286 285 286
283 283 283 283 283 282 282 282 281 281 280 280 279 279 279 278 278 277 277 277 276 276 276 275 275 275 274 274 274 274 273 273 273 272 272 271 272 271 271 271 271 271 270 270 270 270 270 270 271 272 273 272 273 274 275 275 273 273 275 274 272 273 274 275 275 275 276 276 276 276 279 280 280 281 282 283 283 284 284 284 284 284 283 284 285
284 283 283 282 282 281 281 281 281 281 280 280 279 279 278 278 278 277 277 276 276 275 275 274 274 274 273 273 273 273 274 275 276 275 275 274 271 270 271 271 271 271 270 270 270 271 271 272 272 273 272 273 273 273 273 273 273 273 274 274 273 273 274 274 275 276 276 276 276 276 276 277 277 277 277 277 278 280 280 282 282 282 282 283 284
283 282 282 281 281 281 281 280 280 280 280 280 281 283 282 278 278 277 277 276 276 275 275 274 273 273 273 273 273 276 276 277 277 277 278 277 276 273 272 271 271 270 269 269 270 272 272 272 272 272 272 271 272 273 273 274 275 275 274 273 272 273 274 274 275 275 277 276 275 275 276 277 276 275 275 275 277 278 277 277 277 279 281 284 285
282 282 281 281 281 281 281 280 280 280 280 280 283 284 284 284 279 277 276 276 276 275 274 273 272 273 272 273 272 275 276 277 276 278 278 279 278 277 277 276 275 272 270 271 271 273 272 271 272 273 272 272 273 275 274 275 275 274 273 274 274 274 272 271 270 274 278 276 275 273 273 275 274 273 273 274 275 276 276 276 280 281 283 285 285
282 282 281 281 281 281 281 280 280 280 279 282 284 285 285 285 282 278 277 276 275 275 274 274 273 273 272 272 272 273 274 275 275 276 277 279 279 278 278 278 277 277 277 274 273 273 273 272 273 273 273 273 274 274 274 274 273 273 274 274 274 273 272 272 272 272 276 277 273 271 271 272 273 273 272 273 274 275 276 279 281 282 283 284 285
282 281 281 281 280 281 281 280 280 280 279 283 284 285 285 285 284 280 276 276 275 274 274 274 274 273 273 272 272 273 274 277 276 275 275 276 279 279 279 279 279 279 280 280 279 276 276 275 274 274 274 274 274 274 275 274 275 274 274 274 274 274 274 273 274 274 275 275 272 270 269 271 272 271 271 273 274 274 275 278 280 281 283 284 284
281 281 280 280 280 280 280 280 280 280 279 282 285 285 286 286 285 282 276 275 275 274 274 274 274 273 273 272 272 272 273 275 275 274 275 275 276 277 277 277 277 279 281 282 281 281 280 277 276 274 276 276 274 275 275 276 275 274 274 274 275 274 274 273 273 273 273 274 270 269 267 269 271 271 270 272 273 273 274 277 280 282 283 284 284
281 281 280 280 280 280 280 280 279 279 279 282 284 285 286 286 285 283 276 275 275 274 274 274 274 273 273 272 272 272 273 274 274 274 274 275 276 276 276 277 277 276 275 275 275 275 275 275 275 274 275 275 275 276 276 277 276 276 277 276 275 274 273 273 271 271 271 272 271 270 265 269 271 270 270 271 272 272 273 277 279 281 282 282 282
281 281 280 280 280 279 279 279 279 278 278 282 284 285 286 286 286 280 276 275 274 274 274 274 274 273 273 273 273 273 273 273 276 279 277 275 274 273 272 273 273 273 273 275 277 277 276 275 276 275 276 276 278 277 278 279 279 278 278 276 273 271 268 266 265 267 267 271 271 269 266 267 270 269 269 271 272 272 273 273 278 279 280 281 282
279 279 279 280 280 280 279 279 278 278 277 281 284 285 286 286 285 278 275 274 274 273 273 273 273 274 274 274 274 273 274 273 277 280 280 278 273 271 270 270 270 270 272 274 277 279 279 280 280 280 281 281 282 281 281 280 279 278 274 271 268 267 265 264 264 265 266 269 269 270 268 266 269 269 269 271 271 272 272 273 273 277 279 280 281
277 277 276 277 278 278 279 278 278 277 276 279 283 285 286 286 283 276 275 274 273 273 273 273 274 274 274 276 276 274 274 274 279 281 281 277 271 271 270 269 269 269 272 275 275 276 279 279 279 280 279 279 279 279 278 277 277 276 271 267 267 265 264 263 262 264 265 267 268 270 267 267 269 271 269 270 271 271 272 273 273 274 277 278 279
277 277 277 277 276 276 277 278 279 278 276 278 283 285 285 286 282 275 274 273 273 272 273 272 274 274 274 276 277 276 275 276 281 282 281 277 271 271 270 270 270 271 273 275 274 273 274 274 274 273 274 275 274 272 272 275 275 273 269 267 266 263 262 262 263 263 263 265 269 271 267 267 268 269 270 267 266 269 272 272 272 272 273 273 273
Wind_Speed
6 6 5 5 5 5 5 6 5 5 5 5 6 6 6 5 5 5 4 4 4 4 3 4 4 4 4 4 4 4 4 4 4 4 4 5 5 7 12 12 11 11 12 11 11 11 11 11 10 10 11 12 12 13 13 13 13 13 13 13 13 13 14 15 15 15 16 16 16 16 16 17 17 17 17 18 18 19 19 19 19 19 19 19 19
7 6 6 6 5 4 5 5 5 5 5 6 4 6 6 6 5 4 5 4 4 3 3 4 5 4 4 4 4 4 3 3 4 5 3 4 5 5 10 12 12 12 12 11 12 12 12 12 11 10 11 12 12 13 13 12 13 13 13 13 13 14 15 15 15 15 15 16 16 17 17 17 16 16 17 17 17 18 18 18 19 19 19 19 19
6 7 5 6 5 5 5 5 6 5 5 5 3 5 5 5 5 5 5 5 4 2 3 5 4 4 3 4 4 4 4 4 3 3 4 4 5 4 5 10 12 12 13 12 12 12 12 12 12 12 12 12 12 12 12 12 13 13 13 13 13 14 14 15 15 15 15 16 16 16 16 17 17 16 16 17 17 17 18 18 18 18 19 19 19
6 6 6 6 6 5 5 5 5 4 4 5 5 4 4 4 4 3 3 4 4 3 3 5 5 4 3 3 3 4 4 4 4 4 3 4 4 5 5 5 10 12 13 13 13 13 12 12 13 13 13 13 13 13 13 13 13 13 13 13 13 13 14 14 14 14 15 15 16 16 16 16 17 17 17 17 17 17 17 18 18 18 18 19 19
7 7 6 6 5 5 5 4 4 5 4 4 5 4 5 5 4 3 4 3 4 3 2 3 4 3 3 3 3 3 3 3 3 4 4 3 5 4 5 4 4 7 11 12 13 13 13 13 14 14 14 14 14 14 14 13 13 13 13 13 13 14 14 14 15 15 15 16 16 16 17 17 17 17 17 17 17 17 17 17 17 17 17 18 18
7 6 6 6 5 5 5 5 4 4 4 5 6 5 5 5 5 4 3 3 4 2 2 3 4 3 3 2 2 2 2 3 3 3 3 4 3 4 5 5 5 5 5 9 12 13 13 13 14 14 14 14 15 15 14 14 14 14 14 14 14 14 14 14 15 15 16 16 17 17 17 17 18 18 17 17 17 17 17 17 17 17 16 17 18
7 8 7 6 6 5 5 5 4 4 5 5 6 5 5 6 6 6 3 4 3 2 2 3 3 4 3 2 2 1 2 3 2 3 3 3 3 4 5 5 4 4 5 6 7 11 13 14 14 14 14 14 14 14 14 14 14 13 13 13 13 14 14 14 15 15 16 16 17 17 17 17 17 18 18 18 17 17 17 17 17 17 16 16 16
8 7 7 7 6 6 5 5 5 5 5 5 5 6 5 5 3 5 6 2 3 2 2 3 3 4 2 2 2 1 3 2 3 3 2 3 5 4 4 4 4 4 4 5 5 6 13 14 15 15 15 15 15 15 15 15 14 14 14 14 14 14 15 15 15 15 15 16 16 16 17 17 17 18 19 18 18 19 19 19 19 18 17 17 17
8 8 7 7 7 6 5 5 5 5 6 5 5 5 6 5 3 0 1 5 3 3 1 2 3 3 2 3 2 2 3 2 2 3 2 5 3 3 4 4 3 5 5 5 5 5 8 15 15 16 16 16 15 15 15 15 15 15 14 14 14 14 14 15 15 15 16 16 16 16 17 17 17 18 18 19 19 20 20 20 20 19 19 19 18
8 8 7 6 6 6 5 6 6 6 6 5 5 4 3 4 5 2 3 5 4 3 2 1 2 3 3 3 3 3 2 3 2 2 4 4 4 4 2 2 4 4 4 4 4 5 5 9 12 12 14 16 15 15 15 15 16 16 15 14 14 14 14 15 15 15 16 16 16 16 17 17 17 18 18 19 19 20 20 21 21 21 21 21 20
9 9 8 8 7 7 7 6 6 6 6 6 5 5 4 3 5 5 2 3 5 3 2 2 3 3 5 4 3 3 2 3 3 4 4 3 3 2 2 4 3 4 4 5 5 5 6 6 6 6 7 14 14 14 15 16 17 15 15 14 14 14 14 15 15 15 16 16 16 16 17 17 17 18 18 19 19 19 19 20 21 21 22 22 21
10 10 9 8 8 8 8 7 7 7 8 8 8 8 9 7 6 8 7 3 2 1 1 3 3 5 4 4 4 3 4 3 4 4 4 4 3 2 5 3 5 4 5 4 5 5 6 6 5 6 5 8 13 13 16 16 16 15 14 14 14 14 14 14 15 15 15 15 16 17 17 18 18 18 18 18 18 18 19 19 20 21 21 21 21
10 10 10 9 8 7 8 7 7 8 8 10 8 8 6 6 7 4 5 4 1 1 1 2 4 2 3 5 5 3 2 2 3 3 3 2 2 5 4 5 4 5 4 5 5 5 5 5 5 5 5 5 6 10 12 14 14 14 14 14 14 14 14 14 14 15 15 16 16 17 17 17 17 17 18 18 19 19 19 19 20 20 21 21 21
10 11 10 11 10 9 9 10 9 9 7 4 5 5 6 6 7 4 1 4 2 1 0 2 3 3 3 1 4 4 1 0 1 2 3 3 2 3 4 4 5 3 4 5 4 4 4 3 3 4 4 4 4 4 5 6 8 14 15 16 15 15 14 14 14 15 15 16 17 17 17 17 18 18 18 18 19 19 19 20 20 21 21 22 22
11 11 11 11 11 10 10 9 10 8 8 8 7 8 8 10 9 9 5 2 2 1 0 1 5 2 2 4 1 2 1 1 1 1 2 1 0 3 4 4 3 3 3 4 4 4 3 3 4 4 4 4 4 3 4 5 6 13 14 15 15 15 15 14 14 15 16 16 16 17 18 18 19 19 19 19 19 19 20 20 21 21 22 22 22
11 12 10 11 12 12 10 9 10 10 10 10 10 10 9 8 7 5 9 5 2 1 0 0 4 8 2 1 2 2 0 3 3 3 0 1 1 1 2 2 1 3 4 3 3 4 4 3 4 4 4 3 3 3 3 3 7 10 11 13 14 14 14 14 15 16 17 17 18 19 20 20 20 20 20 20 20 21 21 21 21 22 22 23 23
12 13 12 13 11 11 11 11 10 10 9 9 10 12 12 10 10 8 9 9 7 2 1 1 1 1 6 5 2 0 3 1 1 4 3 2 0 1 1 1 1 1 2 2 2 2 3 4 4 4 4 4 3 3 3 3 4 4 6 9 12 11 12 13 15 16 16 18 20 21 21 21 21 21 21 21 21 21 21 22 22 22 22 23 23
11 13 12 11 12 12 11 11 11 10 10 10 9 6 8 9 11 10 8 4 8 7 3 0 1 1 0 0 2 3 5 3 2 2 2 0 2 2 1 0 0 1 0 1 2 3 3 4 4 4 4 4 3 3 3 3 3 3 4 7 11 10 10 11 12 13 15 17 19 19 20 20 20 20 21 21 22 22 22 22 22 22 22 23 23
12 13 13 12 12 11 11 11 11 10 9 8 8 11 11 10 7 7 7 7 8 6 9 6 2 1 3 2 3 2 4 7 5 2 1 1 1 1 1 1 1 1 1 2 1 2 3 3 4 4 4 3 3 3 2 3 4 5 8 10 10 9 10 11 11 12 15 18 19 18 18 18 19 19 20 20 21 21 22 22 22 23 23 23 23
13 12 13 13 12 11 11 10 11 10 10 10 11 9 7 4 7 5 5 7 9 10 8 9 9 4 2 3 3 4 4 5 3 5 3 1 1 1 1 3 2 2 3 3 2 2 3 4 4 4 4 3 3 2 2 2 2 3 3 8 8 9 9 10 12 14 17 19 18 18 18 19 19 19 19 20 20 21 21 21 21 22 22 23 23
11 13 12 12 12 13 12 11 11 11 10 9 8 8 11 11 10 8 9 7 6 6 10 10 7 9 7 2 4 5 4 4 3 4 4 3 5 2 3 2 2 5 6 4 3 2 3 4 5 4 3 4 2 2 1 2 2 1 4 7 7 8 9 11 14 17 18 18 17 18 18 19 19 19 20 20 20 20 21 21 21 21 22 22 23
11 11 11 13 13 12 12 14 13 12 11 11 9 9 9 9 11 10 8 8 5 7 10 9 7 8 9 10 6 4 4 2 1 2 1 1 4 4 2 1 5 2 3 4 4 4 4 5 5 4 4 4 3 2 2 1 0 1 3 5 5 8 10 14 18 18 18 17 17 17 18 19 19 20 20 20 20 21 21 21 21 22 22 22 22
10 10 12 12 13 13 13 13 12 11 11 11 12 11 11 10 9 6 7 9 8 7 4 6 7 8 8 10 11 11 10 8 9 6 5 4 2 5 3 5 5 5 3 2 2 5 6 5 5 4 3 3 2 2 1 1 1 2 5 6 7 10 13 17 19 18 18 18 18 18 18 19 20 20 20 20 20 21 21 22 23 22 23 23 23
10 11 12 12 12 11 11 11 11 12 13 11 10 10 9 8 8 8 8 6 5 7 7 9 9 8 8 7 8 7 6 6 8 9 10 6 7 5 6 4 4 6 3 3 6 5 4 5 5 3 3 3 2 1 1 1 1 6 6 8 10 13 16 18 19 18 18 18 18 18 19 19 20 20 21 21 21 21 22 22 23 24 24 24 24
13 14 14 15 13 12 13 13 12 12 11 10 10 10 10 9 10 10 9 10 10 10 10 11 12 12 11 7 6 6 6 4 7 8 4 5 5 3 2 3 5 3 3 1 2 4 3 5 5 3 3 2 1 0 0 2 1 6 6 5 11 13 15 16 17 17 17 17 18 18 19 19 20 20 21 21 21 22 23 23 24 24 25 25 26
16 17 16 15 14 15 13 13 12 11 12 12 12 11 11 11 11 11 12 10 8 10 9 8 8 7 6 8 7 7 5 5 6 7 8 7 5 6 5 1 1 3 1 2 2 1 1 3 4 3 1 1 1 1 3 3 2 6 7 4 7 12 15 16 17 17 17 18 18 19 19 19 20 20 20 21 22 22 23 23 24 25 26 26 26
15 13 11 15 15 13 14 13 13 12 11 11 11 11 11 9 9 11 9 8 9 9 8 9 10 9 8 8 8 6 6 6 7 7 7 7 8 7 7 3 2 1 3 1 3 6 5 2 4 3 1 0 1 1 3 3 2 6 6 3 4 10 14 16 17 18 18 19 19 19 19 20 20 21 21 21 22 22 23 24 25 25 26 26 27
10 11 13 13 14 14 12 13 12 12 12 11 11 11 11 11 9 9 10 7 10 11 9 9 9 9 9 6 7 7 6 7 6 6 6 6 6 6 6 5 6 4 1 4 3 4 4 4 1 3 4 4 2 3 5 3 1 6 4 2 4 5 11 15 17 18 19 20 20 20 20 20 21 21 21 22 22 22 23 24 24 25 25 26 27
13 13 14 14 14 14 14 13 13 12 12 12 11 10 11 11 10 11 11 9 9 11 9 10 8 8 7 9 8 7 7 6 5 6 6 5 6 6 7 8 7 6 3 3 4 4 2 2 2 0 3 4 5 4 2 2 2 3 2 4 4 4 9 15 17 18 19 20 20 20 20 21 21 22 23 23 23 23 24 25 25 25 26 27 28
10 10 12 14 14 15 14 13 12 12 13 12 11 11 11 10 10 10 10 10 10 7 8 8 8 8 7 7 6 7 6 7 7 7 7 7 7 7 7 5 6 8 6 7 5 4 4 1 1 1 3 3 2 2 1 2 8 8 4 4 4 4 12 17 17 18 19 19 20 20 20 21 21 21 23 23 23 24 25 25 26 26 27 28 29
12 12 13 14 13 14 14 13 13 14 12 12 12 11 11 10 10 9 8 10 10 10 8 9 8 9 9 9 7 7 7 8 7 6 6 7 7 6 6 5 6 5 6 5 2 6 4 5 0 1 2 2 4 6 6 6 9 11 10 9 8 12 18 13 18 19 20 21 21 21 21 21 21 21 22 22 23 24 25 26 27 27 28 28 29
9 11 13 14 15 16 15 15 14 13 14 13 13 12 11 11 10 10 10 11 11 11 10 8 8 9 10 10 10 8 8 7 7 7 7 6 6 7 6 7 6 5 5 6 6 7 2 4 1 0 1 2 4 5 6 5 4 9 6 8 9 14 10 8 14 18 20 21 21 21 22 22 22 22 21 22 23 24 25 26 26 27 28 28 29
12 14 14 14 15 15 15 15 16 15 15 14 13 12 12 12 11 11 10 11 12 10 9 10 8 10 10 10 10 8 8 9 8 7 7 7 6 6 6 6 7 6 7 7 7 7 4 2 2 2 2 0 2 3 6 5 5 6 7 6 7 7 8 8 8 14 19 21 21 21 21 21 21 21 22 23 23 25 25 26 26 26 27 28 28
13 15 14 13 13 14 15 16 15 15 15 15 15 14 14 14 13 10 11 13 12 10 10 12 11 10 10 11 10 9 9 9 8 8 8 8 7 7 7 8 8 8 7 8 7 5 7 1 2 1 2 2 4 3 5 6 6 6 7 7 6 7 7 8 7 8 16 19 20 20 20 21 21 22 23 23 25 25 26 26 26 27 27 28 29
11 12 14 14 15 15 14 14 15 15 16 16 15 15 15 16 16 14 13 14 14 14 14 14 13 11 11 11 11 10 8 9 9 8 8 8 8 8 9 7 8 7 7 7 6 5 5 5 2 1 2 3 4 5 5 6 7 7 8 8 8 7 7 8 8 7 13 18 19 19 19 20 21 22 23 23 24 24 25 26 26 27 27 28 29
13 12 12 14 13 15 15 15 15 15 16 15 15 16 16 17 16 16 15 15 14 14 14 14 13 13 14 12 11 11 10 10 9 8 8 8 9 8 8 8 7 7 6 6 5 5 3 3 1 1 1 2 5 6 7 6 7 7 7 8 7 8 9 8 8 8 10 17 18 19 20 21 22 22 22 23 23 24 25 26 26 27 28 28 28
11 11 12 12 13 14 15 17 18 18 18 17 17 16 15 15 16 15 15 15 15 15 14 13 13 14 14 14 13 12 12 11 9 10 9 11 9 8 9 7 7 6 5 6 5 5 4 5 4 3 5 6 6 7 6 6 6 6 6 7 7 8 8 7 7 7 12 16 17 19 20 20 21 21 22 22 23 24 25 26 27 28 28 29 30
10 11 12 12 13 16 15 15 16 17 16 16 17 18 17 16 15 14 14 15 15 14 14 13 13 13 13 13 12 13 13 14 13 11 11 12 10 9 9 8 7 6 6 6 5 5 4 4 5 6 5 6 4 4 5 5 6 7 7 6 5 6 6 6 5 5 4 5 6 8 11 14 15 19 20 20 23 25 26 26 27 28 29 29 30
12 12 12 14 13 15 16 15 15 15 15 16 16 15 15 16 16 16 15 15 14 13 13 13 12 12 12 12 12 13 14 13 13 13 13 12 10 11 10 9 8 8 7 6 5 4 4 5 6 6 5 4 4 4 3 5 6 6 8 7 6 5 5 7 9 6 6 7 8 15 15 14 16 14 17 21 23 25 26 26 27 29 29 30 31
14 14 14 14 13 11 13 14 14 13 14 14 14 15 15 16 16 16 16 15 15 14 13 12 12 12 12 11 12 13 13 12 12 12 13 12 10 10 9 8 8 7 6 6 5 4 4 5 5 5 3 4 3 3 4 4 5 5 5 6 10 8 7 6 7 10 7 7 8 5 7 10 10 13 18 19 21 24 27 27 28 29 31 32 31
12 13 12 11 11 12 11 11 12 12 14 15 15 15 16 17 16 16 17 17 15 14 13 13 12 11 10 10 10 11 11 13 15 13 13 12 11 10 9 10 9 9 7 5 5 4 4 5 4 3 4 3 3 3 4 4 5 7 5 6 9 8 9 9 6 6 7 9 7 5 5 6 10 8 7 8 9 16 19 26 23 29 30 30 32
12 10 10 12 12 13 13 12 12 12 13 12 13 20 18 16 17 14 14 15 16 15 14 13 12 12 12 11 10 16 18 18 17 18 18 17 15 11 11 11 10 9 8 7 6 6 6 6 5 3 3 3 4 3 4 4 5 5 7 7 10 9 9 11 9 3 6 6 6 9 8 6 10 13 9 12 11 11 11 11 11 15 22 28 29
12 12 12 13 14 13 14 14 14 13 12 11 17 24 25 24 17 15 15 15 15 15 15 16 15 15 13 12 10 15 16 16 15 20 19 20 19 17 17 16 13 11 10 9 8 8 7 6 4 3 5 6 6 5 5 5 5 6 7 8 9 10 11 12 16 10 2 8 10 8 11 8 10 14 8 7 10 11 11 10 20 25 27 30 31
12 11 14 15 13 12 12 13 15 14 13 13 22 25 26 26 20 15 14 13 14 15 15 15 13 10 10 11 12 11 12 14 12 13 16 20 20 19 20 19 19 17 14 10 10 9 8 6 5 5 6 7 6 5 5 4 5 6 8 10 10 11 13 14 12 15 10 10 15 16 13 4 8 13 11 7 8 10 12 18 26 28 30 31 31
9 12 15 13 15 15 14 16 16 14 13 15 22 25 26 26 26 19 12 13 13 15 15 15 14 9 9 8 11 10 10 19 13 11 11 13 18 21 20 20 19 19 18 18 16 9 6 6 6 6 7 6 7 6 2 3 6 10 10 10 10 11 12 12 11 12 11 10 13 15 16 8 6 13 14 8 8 10 14 19 27 29 32 31 31
10 11 11 13 12 12 14 14 13 12 12 14 22 24 25 26 25 20 12 14 14 14 15 14 13 10 11 13 13 12 9 13 11 13 11 11 12 12 13 12 12 15 19 20 20 18 12 6 6 6 7 4 6 5 5 7 9 8 9 8 8 9 8 8 10 12 11 7 10 13 17 8 3 11 17 11 9 12 12 20 29 29 30 30 31
11 12 12 12 12 11 11 11 11 12 12 16 22 24 24 25 25 21 12 12 12 12 13 14 12 11 10 10 9 10 11 14 12 15 14 13 12 11 11 10 9 7 5 4 3 2 2 1 2 2 3 4 7 8 8 7 8 8 7 8 7 6 8 9 11 10 11 5 5 6 12 13 7 12 19 12 9 14 12 16 25 28 32 34 35
6 6 6 7 9 10 10 10 11 12 9 17 21 23 25 24 26 15 12 12 12 12 13 8 8 7 11 12 11 11 13 13 17 24 18 12 11 11 10 7 6 5 4 5 7 7 6 5 5 6 7 8 11 9 8 7 6 6 7 6 7 7 8 10 13 9 10 4 3 7 11 13 10 11 20 15 10 14 13 12 22 32 31 32 32
7 8 8 8 8 10 10 11 11 11 9 16 23 24 25 26 20 12 12 11 11 12 13 10 11 9 12 11 11 10 13 13 19 24 23 18 11 11 9 8 5 4 4 6 11 13 13 13 13 14 14 14 14 14 14 16 11 8 6 8 8 5 8 11 14 10 10 6 6 6 9 13 11 11 16 15 13 16 16 15 12 18 26 28 30
7 7 5 6 6 7 10 11 12 11 9 14 24 24 26 27 19 13 12 12 11 11 11 9 9 11 11 19 15 13 13 13 21 25 25 18 11 11 9 9 8 8 7 8 6 6 12 12 12 11 10 10 13 14 10 9 10 9 5 8 7 5 9 6 12 13 13 8 8 9 7 8 11 8 13 15 17 14 10 11 15 12 19 22 28
6 4 5 6 6 6 8 9 8 11 9 11 22 24 26 27 19 12 12 11 12 11 11 11 9 8 10 14 18 13 11 14 23 24 25 18 10 11 11 9 10 10 9 9 8 6 5 3 2 3 5 8 2 2 3 10 13 10 5 7 6 4 8 8 8 10 13 8 3 0 7 8 10 11 10 14 16 18 10 8 13 13 11 14 14
Wind_Direction
169 172 160 156 145 139 136 128 121 123 118 100 116 118 104 103 96 91 81 75 70 61 60 57 52 46 52 46 38 32 27 29 29 21 19 13 2 353 7 12 22 31 31 39 41 43 44 41 41 44 44 42 40 41 41 40 40 40 41 42 44 45 41 37 32 31 29 28 27 25 24 21 19 17 15 15 14 13 12 9 7 5 3 1 358
171 168 162 154 146 133 127 132 129 129 122 122 122 121 126 110 105 102 97 87 76 61 68 64 50 44 44 47 35 25 22 28 25 24 20 19 8 359 3 11 17 26 28 39 40 42 42 39 37 43 42 39 37 37 39 37 36 37 38 39 39 39 37 33 30 30 29 27 26 23 21 19 17 16 14 13 12 10 9 7 5 3 1 360 357
167 165 155 149 146 140 138 137 131 134 130 125 116 122 120 126 132 130 121 109 92 76 83 72 55 44 35 46 24 15 20 16 25 25 29 17 14 11 2 10 16 22 25 34 37 39 39 37 40 42 39 36 32 34 37 35 34 34 36 35 33 34 34 33 31 29 28 27 24 22 19 17 15 14 12 12 10 9 6 3 2 1 359 358 356
165 162 155 153 152 147 149 148 151 145 135 134 131 122 125 119 110 110 114 107 101 76 71 80 68 52 37 44 23 29 17 11 21 23 24 23 19 16 11 9 10 20 25 27 33 37 39 40 39 37 34 30 29 32 34 32 29 31 31 31 29 30 31 32 30 29 29 27 24 21 18 15 13 12 11 9 8 7 5 2 0 359 358 356 355
169 164 154 153 148 152 156 161 154 150 139 138 128 122 114 114 104 103 98 95 94 71 71 80 76 55 53 36 37 32 15 26 25 26 21 18 23 15 16 11 10 15 22 27 27 33 37 39 38 34 33 30 27 29 29 28 28 28 28 28 27 27 28 28 27 27 27 25 22 20 17 14 12 10 8 7 6 5 4 2 0 358 357 357 356
162 159 148 148 152 163 164 163 157 152 141 138 137 141 136 132 141 126 116 103 98 84 83 68 64 76 58 34 38 24 24 42 37 28 20 32 14 28 20 22 21 21 23 21 24 28 32 34 34 33 31 27 25 24 25 25 25 24 23 23 23 25 26 25 24 25 24 23 20 18 16 13 11 9 7 6 5 4 2 1 359 357 357 357 357
167 159 156 154 160 167 172 171 156 151 149 155 143 147 147 148 149 122 99 91 91 86 76 74 72 63 44 41 29 29 36 54 38 38 36 25 31 28 25 25 25 35 32 24 19 18 29 29 31 29 28 26 24 23 23 24 23 22 20 20 21 24 24 24 24 25 24 22 20 17 15 13 10 7 6 4 3 1 360 358 356 354 355 355 355
165 161 157 164 168 174 172 157 161 152 155 153 148 157 159 147 156 136 122 109 104 57 37 54 52 60 49 46 22 45 54 50 47 44 35 57 44 29 25 25 31 35 33 28 27 15 24 29 28 26 24 21 20 22 20 21 19 17 16 17 18 22 22 22 22 23 23 21 20 18 16 13 11 9 7 4 3 1 358 357 355 353 352 351 352
168 165 159 165 168 166 166 165 162 161 160 164 166 165 157 149 138 131 127 142 123 117 48 65 56 63 59 56 31 47 54 49 60 64 50 58 37 31 33 23 30 33 29 28 25 20 19 27 26 23 18 15 16 17 17 16 15 13 12 15 17 20 22 21 20 20 20 20 18 17 16 14 14 11 9 6 5 2 359 356 353 351 349 349 348
169 165 162 164 164 163 160 166 166 163 162 165 172 158 158 150 127 83 121 124 129 124 101 23 68 73 66 53 30 52 43 59 66 59 62 50 31 43 26 27 45 32 31 31 25 25 30 22 22 19 14 11 12 13 13 14 12 8 8 12 15 17 19 17 18 20 19 19 19 19 19 17 14 11 7 6 4 1 358 354 351 349 348 347 346
170 165 162 165 163 164 167 173 168 168 163 164 163 168 161 164 140 115 92 100 130 147 151 125 77 74 69 41 43 49 52 78 58 56 52 62 55 46 61 38 51 40 34 31 23 27 25 22 19 15 6 3 7 8 10 13 9 4 5 8 11 12 16 17 18 20 19 19 20 20 19 16 12 8 5 1 359 356 355 351 349 347 345 344 344
170 166 165 167 168 173 172 172 176 170 170 172 178 179 174 153 151 136 126 93 57 118 99 114 85 80 76 44 41 44 77 77 65 63 65 56 59 67 50 39 51 36 35 25 30 27 24 15 16 7 4 356 3 7 8 11 3 357 4 6 9 12 15 19 18 22 21 21 22 19 15 11 8 6 3 0 357 356 354 351 349 347 345 343 342
171 166 172 170 173 166 168 179 179 180 184 191 182 174 171 160 144 130 135 120 87 18 104 120 116 74 32 59 43 23 50 71 63 54 52 53 49 62 37 49 33 35 13 21 32 24 21 14 4 2 1 359 355 359 4 6 359 355 2 5 8 11 14 18 20 24 23 22 17 15 12 10 6 5 1 358 355 353 351 349 345 343 341 339 338
173 174 171 174 171 174 179 182 181 188 189 171 168 170 161 159 152 100 37 132 140 209 227 110 34 139 142 55 15 355 25 20 291 313 9 15 33 69 62 53 44 24 12 25 23 20 12 2 354 358 360 4 356 353 354 358 350 355 1 3 5 7 11 17 19 23 20 15 13 11 11 8 5 0 357 353 351 349 348 346 343 340 338 335 334
177 175 175 179 178 178 185 180 184 177 171 176 177 179 180 173 177 152 123 55 117 188 146 196 139 132 117 86 7 66 341 344 339 6 338 317 18 69 82 63 46 43 20 33 16 2 355 350 348 353 354 358 354 347 352 354 346 356 359 360 357 4 8 13 18 18 14 11 11 9 6 1 357 354 352 350 348 347 346 344 341 338 335 334 332
175 180 181 180 181 184 179 180 185 185 182 175 181 185 180 184 181 173 144 129 152 194 115 177 140 139 81 104 188 126 344 257 306 289 256 242 123 61 79 96 12 37 40 23 347 349 336 333 341 345 343 344 342 344 347 350 349 351 352 348 346 8 7 10 14 10 8 8 6 2 358 355 352 351 349 348 346 345 343 341 338 335 333 331 329
183 183 181 183 184 183 181 184 182 186 184 184 185 190 186 183 177 168 180 152 173 164 202 80 108 303 142 110 68 27 215 214 47 291 4 96 10 21 54 118 83 83 70 321 332 337 331 328 326 341 336 337 336 338 340 350 345 346 342 335 345 11 10 11 10 7 5 4 359 354 351 349 349 348 347 345 343 341 339 336 335 332 331 330 328
182 183 187 182 185 185 184 180 185 185 190 193 188 170 183 184 192 183 179 192 144 149 133 110 67 73 157 129 165 173 178 219 130 241 332 335 302 306 275 352 329 105 44 306 319 333 332 317 319 326 331 327 324 322 328 334 332 332 328 321 352 6 18 12 6 5 3 358 351 347 345 345 345 344 342 341 339 337 335 333 331 329 328 327 325
185 185 187 185 183 184 184 186 186 188 187 182 186 193 190 192 178 188 185 152 138 141 160 167 86 36 43 44 68 47 124 131 203 94 325 311 327 320 269 332 334 253 264 274 271 346 312 304 306 318 319 314 312 305 319 329 332 339 339 338 353 2 12 8 5 2 355 347 342 341 342 341 341 340 338 335 333 332 330 328 327 326 325 324 323
185 187 187 185 182 184 184 183 186 189 184 193 195 191 180 187 190 188 166 180 168 155 163 168 160 171 99 77 64 57 48 69 109 156 154 189 288 319 278 334 355 272 257 275 232 267 297 296 295 307 305 299 290 278 300 309 315 324 318 334 354 357 7 3 1 354 345 340 337 338 339 338 338 336 334 331 330 328 327 324 323 322 321 320 319
189 187 187 184 185 185 182 185 187 188 190 195 194 182 186 180 179 179 186 191 187 155 149 178 165 157 139 79 81 56 47 39 57 75 128 138 269 248 269 333 338 268 269 277 239 250 253 272 282 286 288 289 287 273 273 283 295 314 309 337 350 1 2 356 351 343 338 336 335 336 336 335 335 333 332 330 328 326 324 323 320 319 317 316 315
193 188 185 190 189 184 185 189 190 188 190 192 185 185 187 192 190 187 181 177 176 169 171 169 171 155 162 149 136 112 68 44 39 111 68 154 199 198 210 267 300 284 259 266 259 262 262 268 272 265 262 258 265 244 239 239 219 278 295 358 11 8 354 346 342 339 335 333 334 334 333 333 332 331 330 328 326 324 322 321 320 319 317 315 313
184 190 195 191 192 188 189 192 189 188 189 187 191 187 189 188 186 180 184 176 175 173 151 159 155 160 163 167 166 170 171 173 182 183 162 158 173 231 181 207 231 298 279 290 256 267 259 251 246 255 248 257 247 244 258 264 47 353 48 28 15 359 346 341 339 335 332 332 333 333 330 330 329 328 327 326 324 321 321 320 320 318 316 314 312
187 194 197 193 191 192 193 191 191 189 195 191 187 187 181 177 177 184 184 182 164 164 159 160 168 168 177 182 180 177 163 160 173 169 174 190 175 185 147 167 261 240 254 295 293 263 248 238 244 231 232 232 249 244 243 89 34 79 59 19 358 349 342 340 336 330 330 331 331 328 326 326 326 326 325 324 322 320 319 319 317 316 314 314 313
197 197 198 189 187 189 192 193 196 197 191 184 188 180 178 180 181 184 181 181 183 176 173 181 172 175 184 185 170 176 184 158 146 159 151 130 147 154 148 166 190 225 242 222 282 298 248 242 247 215 202 222 210 241 102 109 164 89 67 15 352 342 339 334 329 326 326 326 325 323 322 322 322 322 322 321 320 319 318 316 315 313 312 312 312
192 199 193 184 190 196 190 195 196 191 190 188 183 183 180 183 182 182 187 188 175 183 182 173 180 177 156 165 182 180 166 152 149 146 154 142 152 184 157 83 154 266 185 223 255 330 315 305 278 275 296 306 350 106 120 123 81 34 26 15 342 335 333 329 325 323 323 322 321 320 319 319 319 319 318 318 317 316 314 313 312 310 309 310 310
196 195 177 188 194 190 192 191 191 192 189 189 187 183 184 182 185 188 182 178 182 176 179 173 176 174 175 177 168 166 165 163 156 167 162 174 161 167 154 141 336 319 313 249 222 215 202 201 225 237 187 240 223 143 117 101 53 21 7 354 320 326 327 325 321 321 321 320 318 317 317 317 316 316 315 315 313 312 311 310 309 308 308 308 308
188 180 189 183 189 191 190 195 189 188 191 190 186 186 184 183 184 183 185 178 177 181 180 177 181 175 171 160 156 175 166 168 170 163 168 160 153 153 158 156 167 262 348 320 317 280 189 181 240 160 151 165 190 146 125 95 39 348 335 311 313 312 318 317 317 318 318 316 315 314 313 313 312 312 312 312 311 310 310 309 308 307 306 306 306
190 186 181 186 185 187 189 190 189 187 186 190 189 187 185 188 187 185 186 179 178 184 174 180 180 167 167 172 172 165 172 164 163 164 163 160 163 163 173 173 169 154 192 231 271 250 314 127 163 351 109 146 144 155 152 168 249 315 314 326 310 308 305 310 313 313 312 311 311 311 309 309 309 309 311 311 312 311 310 310 310 308 306 306 305
179 181 179 180 185 186 188 188 187 184 188 186 187 188 185 193 192 192 188 173 178 176 179 174 169 167 163 164 164 168 168 170 172 168 169 169 167 172 177 182 174 179 176 175 241 217 263 315 186 182 19 20 5 332 3 307 327 340 316 298 294 281 299 308 308 306 306 307 308 307 306 305 306 308 312 313 312 312 311 311 310 308 307 305 304
186 178 179 181 182 185 186 187 185 187 184 186 183 186 187 190 189 189 180 176 180 180 179 174 172 166 169 171 168 169 171 173 164 168 171 167 170 166 176 174 200 198 169 148 146 276 179 218 235 108 91 358 344 323 327 342 338 332 326 314 310 304 308 306 304 306 308 309 308 308 308 307 307 309 312 312 312 312 311 312 311 309 307 305 305
186 181 186 185 183 183 187 185 184 183 184 185 182 184 184 193 188 188 184 180 184 183 178 177 168 174 169 174 177 173 173 166 169 172 173 170 162 170 176 182 195 189 168 173 183 235 182 186 191 200 30 314 312 300 304 316 309 299 289 291 292 300 304 300 299 299 303 305 306 307 307 309 310 311 310 312 313 313 312 310 309 308 307 306 306
185 188 190 188 187 186 183 186 185 184 184 183 184 183 186 190 190 189 180 185 188 188 174 177 175 174 178 178 178 178 167 172 172 167 170 170 164 171 174 180 189 188 181 180 193 231 271 213 278 291 349 113 306 248 275 280 286 277 269 267 271 276 281 282 285 286 291 295 299 302 304 306 309 309 310 312 312 311 311 310 309 307 306 306 305
185 192 190 188 188 186 186 187 186 185 185 186 183 184 187 188 189 186 184 185 189 186 180 185 181 181 177 176 180 175 176 173 166 173 172 169 173 172 185 185 193 194 191 181 201 185 248 204 219 164 211 243 254 243 240 259 256 261 266 270 268 259 262 262 263 267 275 285 292 296 300 303 305 307 309 310 311 311 310 309 307 307 306 306 307
195 193 190 188 189 187 188 186 185 186 187 187 186 186 189 188 187 187 186 186 188 185 188 192 185 176 176 184 183 173 170 171 174 173 167 176 175 182 188 189 193 195 193 191 175 204 220 262 199 218 190 234 231 254 247 244 247 249 260 263 264 261 255 258 260 259 267 278 287 292 296 301 303 304 305 305 305 306 305 303 303 303 304 304 303
194 198 193 192 187 189 189 186 187 188 188 189 187 190 189 188 189 189 186 189 192 192 191 188 183 181 183 180 184 176 172 173 173 172 177 176 182 186 187 194 192 192 190 186 197 180 183 216 208 139 200 236 254 257 255 248 246 247 241 253 249 253 254 253 256 259 261 271 284 293 298 301 301 301 302 302 302 302 301 300 301 302 301 299 297
209 194 196 191 191 190 192 191 190 190 190 187 187 189 190 191 191 188 187 190 194 194 192 190 186 185 184 187 179 173 174 174 174 178 180 182 184 183 190 190 188 186 179 184 189 181 194 226 259 247 241 238 239 248 251 261 259 251 248 248 252 253 257 250 249 252 258 274 288 294 295 294 297 297 297 298 298 299 298 298 299 299 298 296 295
211 210 200 193 196 196 198 197 195 193 188 187 189 190 189 187 188 190 190 191 194 192 191 190 188 189 187 184 177 175 177 180 182 180 179 182 180 187 187 187 181 178 181 184 179 185 193 223 234 260 241 254 250 230 239 239 266 283 275 260 256 257 262 274 252 257 262 273 289 279 280 286 285 288 292 293 297 297 296 296 295 294 293 293 291
205 205 208 202 202 199 200 196 197 192 190 191 190 188 189 188 187 187 189 191 192 192 193 189 187 188 188 184 179 179 183 185 180 179 179 179 184 188 186 180 175 176 183 179 181 183 199 223 233 240 251 241 242 279 259 248 254 264 284 292 279 263 266 285 296 277 276 276 267 282 288 294 295 296 294 294 294 293 292 292 289 290 290 288 288
207 207 205 208 210 208 205 200 198 189 188 191 192 190 188 190 189 189 188 190 190 190 187 185 185 188 188 185 183 184 185 185 182 178 176 180 178 183 182 175 177 173 175 178 173 184 209 224 237 244 240 270 265 238 241 252 270 263 247 296 302 305 295 284 283 299 288 276 289 276 280 289 282 282 287 288 286 288 289 288 287 286 286 284 282
208 207 205 205 203 206 210 207 202 197 194 193 191 190 189 189 192 191 189 187 187 186 184 185 184 183 184 186 185 184 185 185 184 180 183 177 172 176 181 176 178 177 178 173 172 184 206 224 236 252 268 270 264 278 272 264 281 295 300 303 296 298 299 298 283 269 277 297 294 285 293 296 299 295 290 286 282 282 281 283 284 285 284 283 281
208 202 199 201 204 205 201 203 200 201 206 203 191 188 187 188 187 189 190 189 185 183 182 181 181 182 183 183 184 182 183 184 184 185 185 185 185 180 174 176 178 176 174 167 180 188 200 215 231 251 269 263 257 248 271 281 288 297 305 309 304 308 305 300 292 270 308 286 299 310 309 322 308 297 289 290 288 280 280 282 278 282 282 284 282
205 201 196 202 204 201 201 200 201 206 208 206 190 191 191 188 184 185 186 188 186 182 181 180 183 181 181 182 178 182 181 182 184 187 187 188 188 188 185 185 185 176 166 175 187 192 195 209 210 234 260 271 273 279 285 296 303 312 309 305 306 312 317 324 319 314 165 328 318 309 304 311 299 292 293 275 281 283 281 279 286 288 288 288 287
206 199 204 206 201 197 200 203 206 208 208 202 194 194 192 190 184 184 186 186 186 187 185 183 182 169 165 170 179 178 179 180 176 185 189 191 191 192 192 191 191 186 184 178 181 189 193 191 211 222 247 260 271 276 285 304 301 301 301 307 307 310 311 306 302 302 321 352 321 313 302 319 297 290 290 275 269 276 281 290 296 296 293 290 288
200 206 211 200 203 200 197 202 208 207 210 202 199 195 192 191 187 182 187 186 185 189 186 184 180 163 163 152 172 181 179 180 177 181 182 190 194 194 194 195 195 196 200 201 199 192 188 199 204 222 233 259 271 268 239 275 295 295 298 295 294 290 292 290 295 304 315 346 313 308 304 322 306 290 287 283 281 287 293 296 296 293 291 291 290
210 214 212 211 210 203 204 203 206 205 208 202 200 198 195 192 188 181 185 184 189 189 187 184 180 166 169 171 175 178 172 177 178 180 184 187 187 190 195 197 200 206 210 214 218 221 219 205 206 226 242 229 259 278 276 276 282 281 286 284 289 289 302 298 303 295 295 332 303 306 298 313 336 303 293 295 296 287 283 290 292 292 292 294 294
212 213 210 211 210 208 206 204 204 205 206 198 200 199 196 191 189 181 182 184 186 188 187 187 182 172 170 173 168 163 162 178 180 181 181 185 185 189 193 195 195 195 197 206 211 178 212 219 223 242 249 253 255 258 264 266 256 254 270 294 318 316 302 300 289 288 294 297 277 287 284 305 330 304 288 295 296 284 278 282 286 292 292 293 291
226 223 225 216 212 209 207 202 206 209 200 196 200 199 195 192 188 181 182 185 185 185 186 173 163 164 176 178 171 171 172 180 185 186 185 177 177 179 183 184 182 188 196 205 207 218 209 206 217 222 228 234 243 247 253 264 287 308 311 326 321 313 322 308 294 302 284 296 261 279 287 297 308 292 289 295 287 282 286 278 285 287 288 289 289
220 217 217 210 210 209 205 204 205 208 198 195 197 196 194 192 186 181 180 183 185 186 187 173 173 169 181 179 176 169 175 181 186 186 184 176 171 175 178 179 179 183 203 203 215 218 221 227 234 243 252 259 273 286 294 299 304 319 337 320 303 326 313 308 297 295 282 314 283 274 278 288 291 286 287 295 294 290 289 286 278 280 285 288 290
228 225 210 213 211 207 206 207 205 205 201 194 195 196 193 193 183 177 179 183 186 184 184 173 172 178 181 182 178 174 176 178 184 185 185 178 171 174 172 175 182 195 203 199 198 218 228 237 239 246 261 274 279 287 301 311 311 314 330 296 299 331 293 280 284 294 299 293 283 274 261 258 289 291 296 298 295 278 273 277 288 277 283 285 287
233 216 202 207 211 206 210 207 199 202 198 196 198 197 194 193 182 172 176 183 183 188 181 176 175 169 176 184 182 177 174 173 182 183 181 175 167 174 173 174 189 199 200 194 196 189 185 160 199 232 260 267 274 69 316 307 300 308 302 279 294 275 273 276 275 298 303 298 159 144 303 293 295 287 297 306 299 294 285 278 290 288 281 284 283